• In Hungary
  • List of Countries
  • For 7 days
  • Water Temperature
  • Satellite Maps
  • Weather Map
  • News
  • Weather Widgets
  • user-avatar
    Login

    Hourly Weather Koma

    Today, 22 October, Sunday

    Time Temperature Precipitation Wind Pressure Humidity
    00:00 +1°C° 0 mm 1 mps 722 mmHg 92%
    01:00 -1°C° 0 mm 2 mps 722 mmHg 92%
    02:00 -1°C° 0 mm 2 mps 722 mmHg 93%
    03:00 -1°C° 0 mm 2 mps 722 mmHg 93%
    04:00 -1°C° 0 mm 2 mps 722 mmHg 94%
    05:00 -1°C° 0 mm 2 mps 722 mmHg 93%
    06:00 -1°C° 0 mm 2 mps 722 mmHg 93%
    07:00 -1°C° 0 mm 2 mps 722 mmHg 92%
    08:00 +2°C° 0 mm 2 mps 722 mmHg 83%
    09:00 +4°C° 0 mm 2 mps 722 mmHg 74%
    10:00 +5°C° 0 mm 3 mps 721 mmHg 66%
    11:00 +7°C° 0 mm 3 mps 721 mmHg 61%
    12:00 +8°C° 0 mm 3 mps 720 mmHg 57%
    13:00 +9°C° 0 mm 3 mps 720 mmHg 52%
    14:00 +8°C° 0 mm 2 mps 719 mmHg 56%
    15:00 +8°C° 0 mm 2 mps 719 mmHg 60%
    16:00 +8°C° 0 mm 1 mps 719 mmHg 65%
    17:00 +5°C° 0 mm 2 mps 719 mmHg 69%
    18:00 +4°C° 0 mm 2 mps 719 mmHg 73%
    19:00 +3°C° 0 mm 2 mps 719 mmHg 76%
    20:00 +3°C° 0 mm 2 mps 718 mmHg 77%
    21:00 +3°C° 0 mm 2 mps 718 mmHg 78%
    22:00 +2°C° 0 mm 2 mps 718 mmHg 79%
    23:00 +2°C° 0 mm 2 mps 718 mmHg 79%

    Tomorrow, 23 October, Monday

    Time Temperature Precipitation Wind Pressure Humidity
    00:00 +2°C° 0 mm 2 mps 717 mmHg 80%
    01:00 +2°C° 0 mm 2 mps 717 mmHg 80%
    02:00 +2°C° 0 mm 2 mps 717 mmHg 81%
    03:00 +1°C° 0 mm 2 mps 716 mmHg 81%
    04:00 +1°C° 0 mm 2 mps 716 mmHg 82%
    05:00 +1°C° 0 mm 2 mps 716 mmHg 81%
    06:00 +1°C° 0 mm 2 mps 716 mmHg 81%
    07:00 +1°C° 0 mm 2 mps 716 mmHg 81%
    08:00 +4°C° 0 mm 1 mps 716 mmHg 72%
    09:00 +6°C° 0 mm 1 mps 716 mmHg 63%
    10:00 +9°C° 0 mm 1 mps 717 mmHg 54%
    11:00 +10°C° 0 mm 1 mps 716 mmHg 51%
    12:00 +11°C° 0 mm 1 mps 716 mmHg 49%
    13:00 +12°C° 0 mm 1 mps 716 mmHg 46%
    14:00 +11°C° 0 mm 1 mps 716 mmHg 52%
    15:00 +10°C° 0 mm 1 mps 716 mmHg 57%
    16:00 +9°C° 0 mm 1 mps 717 mmHg 62%
    17:00 +7°C° 0 mm 1 mps 717 mmHg 67%
    18:00 +6°C° 0 mm 1 mps 718 mmHg 72%
    19:00 +5°C° 0 mm 1 mps 719 mmHg 77%
    20:00 +4°C° 0.1 mm 2 mps 720 mmHg 80%
    21:00 +4°C° 0.1 mm 2 mps 721 mmHg 84%
    22:00 +4°C° 0.1 mm 2 mps 722 mmHg 87%
    23:00 +3°C° 0 mm 2 mps 722 mmHg 88%

    Day after tomorrow, 24 October, Tuesday

    Time Temperature Precipitation Wind Pressure Humidity
    00:00 +3°C° 0 mm 2 mps 723 mmHg 88%
    01:00 +3°C° 0 mm 2 mps 723 mmHg 89%
    02:00 +2°C° 0 mm 2 mps 724 mmHg 89%
    03:00 +2°C° 0 mm 1 mps 724 mmHg 89%
    04:00 +1°C° 0 mm 1 mps 724 mmHg 89%
    05:00 +1°C° 0 mm 1 mps 724 mmHg 89%
    06:00 +1°C° 0 mm 1 mps 725 mmHg 88%
    07:00 +1°C° 0 mm 1 mps 725 mmHg 88%
    08:00 +2°C° 0 mm 1 mps 725 mmHg 76%
    09:00 +4°C° 0 mm 1 mps 725 mmHg 65%
    10:00 +6°C° 0 mm 1 mps 725 mmHg 53%
    11:00 +7°C° 0 mm 1 mps 725 mmHg 50%
    12:00 +8°C° 0 mm 1 mps 724 mmHg 47%
    13:00 +9°C° 0 mm 1 mps 723 mmHg 45%
    14:00 +8°C° 0 mm 1 mps 723 mmHg 49%
    15:00 +7°C° 0 mm 1 mps 723 mmHg 54%
    16:00 +6°C° 0 mm 1 mps 722 mmHg 59%
    17:00 +5°C° 0 mm 1 mps 722 mmHg 63%
    18:00 +4°C° 0 mm 1 mps 722 mmHg 67%
    19:00 +3°C° 0 mm 1 mps 722 mmHg 72%
    20:00 +2°C° 0 mm 1 mps 722 mmHg 73%
    21:00 +2°C° 0 mm 1 mps 722 mmHg 75%
    22:00 +2°C° 0 mm 1 mps 722 mmHg 76%
    23:00 +2°C° 0 mm 1 mps 721 mmHg 77%

    25 October, Wednesday

    Time Temperature Precipitation Wind Pressure Humidity
    00:00 +2°C° 0 mm 1 mps 721 mmHg 78%
    01:00 +2°C° 0 mm 1 mps 721 mmHg 79%
    02:00 +2°C° 0 mm 1 mps 720 mmHg 80%
    03:00 -1°C° 0 mm 2 mps 720 mmHg 81%
    04:00 -1°C° 0 mm 2 mps 719 mmHg 82%
    05:00 -1°C° 0 mm 2 mps 719 mmHg 83%
    06:00 -1°C° 0 mm 2 mps 719 mmHg 84%
    07:00 -1°C° 0 mm 2 mps 719 mmHg 85%
    08:00 +2°C° 0 mm 2 mps 719 mmHg 78%
    09:00 +5°C° 0 mm 1 mps 718 mmHg 71%
    10:00 +8°C° 0 mm 1 mps 718 mmHg 64%
    11:00 +9°C° 0 mm 1 mps 718 mmHg 61%
    12:00 +10°C° 0 mm 1 mps 717 mmHg 58%
    13:00 +11°C° 0 mm 1 mps 717 mmHg 56%
    14:00 +9°C° 0 mm 1 mps 717 mmHg 61%
    15:00 +7°C° 0 mm 0 mps 717 mmHg 67%
    16:00 +6°C° 0 mm 0 mps 716 mmHg 72%
    17:00 +5°C° 0 mm 0 mps 717 mmHg 76%
    18:00 +4°C° 0 mm 0 mps 717 mmHg 80%
    19:00 +3°C° 0 mm 0 mps 717 mmHg 83%
    20:00 +3°C° 0 mm 1 mps 717 mmHg 83%
    21:00 +3°C° 0 mm 1 mps 717 mmHg 83%
    22:00 +3°C° 0 mm 1 mps 717 mmHg 83%
    23:00 +3°C° 0 mm 1 mps 716 mmHg 84%

    26 October, Thursday

    Time Temperature Precipitation Wind Pressure Humidity
    00:00 +3°C° 0 mm 1 mps 716 mmHg 84%
    01:00 +2°C° 0 mm 1 mps 715 mmHg 85%
    02:00 +1°C° 0 mm 2 mps 715 mmHg 86%
    03:00 +1°C° 0 mm 2 mps 714 mmHg 87%
    04:00 +1°C° 0 mm 2 mps 714 mmHg 88%
    05:00 +1°C° 0 mm 2 mps 714 mmHg 88%
    06:00 +1°C° 0 mm 2 mps 714 mmHg 88%
    07:00 0°C° 0 mm 3 mps 713 mmHg 88%
    08:00 +2°C° 0 mm 3 mps 713 mmHg 79%
    09:00 +4°C° 0 mm 3 mps 713 mmHg 70%
    10:00 +7°C° 0 mm 3 mps 712 mmHg 61%
    11:00 +8°C° 0 mm 3 mps 712 mmHg 59%
    12:00 +8°C° 0 mm 3 mps 711 mmHg 57%
    13:00 +9°C° 0 mm 3 mps 711 mmHg 56%
    14:00 +7°C° 0 mm 3 mps 711 mmHg 62%
    15:00 +5°C° 0 mm 3 mps 711 mmHg 68%
    16:00 +4°C° 0 mm 3 mps 712 mmHg 75%
    17:00 +3°C° 0.2 mm 3 mps 713 mmHg 77%
    18:00 +2°C° 0.2 mm 3 mps 713 mmHg 80%
    19:00 +1°C° 0.2 mm 4 mps 714 mmHg 83%
    20:00 0°C° 0.1 mm 4 mps 715 mmHg 81%
    21:00 0°C° 0.1 mm 4 mps 716 mmHg 80%
    22:00 -1°C° 0.1 mm 4 mps 717 mmHg 78%
    23:00 -1°C° 0 mm 4 mps 717 mmHg 75%

    27 October, Friday

    Time Temperature Precipitation Wind Pressure Humidity
    00:00 -2°C° 0 mm 4 mps 718 mmHg 73%
    01:00 -2°C° 0 mm 4 mps 718 mmHg 70%
    02:00 -3°C° 0 mm 4 mps 719 mmHg 70%
    03:00 -3°C° 0 mm 4 mps 719 mmHg 69%
    04:00 -3°C° 0 mm 4 mps 720 mmHg 69%
    05:00 -3°C° 0 mm 4 mps 720 mmHg 70%
    06:00 -3°C° 0 mm 4 mps 720 mmHg 70%
    07:00 -3°C° 0 mm 4 mps 721 mmHg 71%
    08:00 -4°C° 0.1 mm 5 mps 721 mmHg 68%
    09:00 -3°C° 0.1 mm 6 mps 721 mmHg 65%
    10:00 -3°C° 0.1 mm 6 mps 721 mmHg 61%
    11:00 -2°C° 0.2 mm 7 mps 721 mmHg 59%
    12:00 -2°C° 0.2 mm 7 mps 722 mmHg 57%
    13:00 -2°C° 0.2 mm 7 mps 722 mmHg 55%
    14:00 -3°C° 0.1 mm 7 mps 722 mmHg 55%
    15:00 -4°C° 0.1 mm 6 mps 723 mmHg 56%
    16:00 -4°C° 0.1 mm 6 mps 724 mmHg 56%
    17:00 -5°C° 0 mm 5 mps 724 mmHg 60%
    18:00 -5°C° 0 mm 5 mps 725 mmHg 63%
    19:00 -4°C° 0 mm 4 mps 726 mmHg 67%
    20:00 -4°C° 0.1 mm 4 mps 726 mmHg 70%
    21:00 -4°C° 0.1 mm 4 mps 726 mmHg 74%
    22:00 -4°C° 0.1 mm 4 mps 726 mmHg 78%
    23:00 -3°C° 0.2 mm 4 mps 726 mmHg 80%
    Show more